PD0PJH-13 Weather Reports


time (UTC)temp
C
wind
direction
speed
KPH
gust
KPH
rain 1hr
cm
rain 24hr
cm
rain mn
cm
humidity
%
barometer
mb
20260509234525 11 155 0.0 0.0 0.00 0.03 0.00 80 1011.5
20260509233004 11 155 0.0 0.0 0.00 0.03 0.00 78 1011.6
20260509231505 12 155 0.0 0.0 0.00 0.03 0.00 76 1011.6
20260509230015 13 155 0.0 0.0 0.00 0.03 0.00 74 1011.6
20260509224518 13 155 0.0 0.0 0.00 0.03 0.00 75 1011.6
20260509223018 13 155 0.0 0.0 0.00 0.03 0.00 73 1011.6
20260509221505 13 155 0.0 0.0 0.00 0.03 0.00 72 1011.6
20260509220008 13 155 0.0 0.0 0.00 0.03 0.00 72 1011.7
20260509214510 13 155 0.0 0.0 0.00 0.03 0.03 73 1011.8
20260509213019 13 155 0.0 3.2 0.00 0.03 0.03 73 1011.8
20260509211522 14 155 0.0 0.0 0.00 0.08 0.03 72 1011.8
20260509210012 15 155 0.0 0.0 0.00 0.15 0.03 70 1011.6
20260509204509 15 155 0.0 0.0 0.00 0.30 0.03 69 1011.6
20260509203017 16 155 0.0 1.6 0.00 0.38 0.03 66 1011.4
20260509201521 16 155 0.0 0.0 0.00 0.46 0.03 65 1011.3
20260509200025 16 155 0.0 1.6 0.00 0.46 0.03 64 1011.1
20260509194511 17 209 0.0 4.8 0.00 0.46 0.03 64 1011.1
20260509193010 17 209 4.8 8.0 0.00 0.46 0.03 63 1010.9
20260509191514 17 119 0.0 0.0 0.00 0.46 0.03 62 1010.9
20260509190022 18 119 1.6 4.8 0.00 0.46 0.03 60 1010.7
20260509184526 18 111 3.2 8.0 0.00 0.46 0.03 58 1010.6
20260509183020 19 99 4.8 9.7 0.00 0.46 0.03 56 1010.4
20260509181502 20 94 8.0 12.9 0.00 0.46 0.03 54 1010.2
20260509180004 20 87 9.7 14.5 0.00 0.46 0.03 52 1010.1
20260509174507 20 134 9.7 19.3 0.00 0.46 0.03 52 1010.0
20260509173008 21 98 6.4 14.5 0.00 0.46 0.03 52 1010.2
20260509171512 21 91 6.4 11.3 0.00 0.46 0.03 51 1010.4
20260509170003 21 103 6.4 16.1 0.00 0.46 0.03 51 1010.4
20260509164507 21 106 8.0 22.5 0.00 0.46 0.03 49 1010.4
20260509163005 22 120 9.7 20.9 0.00 0.46 0.03 46 1010.5
20260509161511 22 147 12.9 22.5 0.00 0.46 0.03 46 1010.7
20260509160016 22 92 9.7 19.3 0.00 0.46 0.03 46 1010.7
20260509154504 22 133 6.4 12.9 0.00 0.46 0.03 47 1010.7
20260509153004 22 82 8.0 16.1 0.00 0.46 0.03 51 1010.8
20260509151508 22 146 6.4 12.9 0.00 0.46 0.03 48 1011.0
20260509150016 22 101 6.4 19.3 0.00 0.46 0.03 49 1011.1
20260509144528 22 130 9.7 19.3 0.00 0.46 0.03 48 1011.2
20260509143003 22 108 12.9 19.3 0.00 0.46 0.03 47 1011.1
20260509141504 22 203 9.7 22.5 0.00 0.46 0.03 50 1011.4
20260509140010 22 98 16.1 24.1 0.00 0.46 0.03 50 1011.1
20260509134514 22 118 8.0 22.5 0.00 0.46 0.03 50 1011.4
20260509133019 22 114 9.7 20.9 0.00 0.46 0.03 56 1011.6
20260509131503 22 145 12.9 22.5 0.00 0.46 0.03 47 1011.7
20260509130008 22 108 8.0 19.3 0.00 0.46 0.03 51 1011.7
20260509124515 22 80 9.7 17.7 0.00 0.46 0.03 50 1011.9
20260509123016 21 105 11.3 19.3 0.00 0.46 0.03 50 1011.9
20260509121526 21 69 9.7 16.1 0.00 0.46 0.03 46 1012.1
20260509120004 21 98 6.4 14.5 0.00 0.46 0.03 49 1012.1
20260509114510 21 90 6.4 20.9 0.00 0.46 0.03 47 1012.5
20260509113016 21 106 11.3 17.7 0.00 0.46 0.03 46 1012.8
20260509111521 21 94 8.0 16.1 0.00 0.46 0.03 51 1013.0
20260509110024 21 162 4.8 16.1 0.00 0.46 0.03 50 1013.0
20260509104508 20 81 6.4 14.5 0.00 0.46 0.03 55 1013.1
20260509103012 20 58 4.8 16.1 0.00 0.46 0.03 49 1013.1
20260509101518 20 123 8.0 14.5 0.00 0.46 0.03 58 1013.3
20260509100023 20 297 1.6 6.4 0.00 0.46 0.03 53 1013.6
20260509094527 20 117 3.2 6.4 0.00 0.46 0.03 54 1013.8
20260509093012 20 39 1.6 6.4 0.00 0.46 0.03 52 1014.0
20260509091505 19 342 1.6 6.4 0.00 0.46 0.03 55 1014.0
20260509090004 19 274 4.8 8.0 0.00 0.46 0.03 61 1014.1
20260509084511 18 311 1.6 6.4 0.00 0.46 0.03 64 1014.3
20260509083008 18 264 1.6 6.4 0.00 0.46 0.03 63 1014.4
20260509081520 17 283 3.2 6.4 0.00 0.46 0.03 66 1014.2
20260509080013 17 233 0.0 6.4 0.00 0.46 0.03 65 1014.3
20260509074503 16 259 3.2 6.4 0.00 0.46 0.03 73 1014.4
20260509073006 16 297 1.6 6.4 0.00 0.46 0.03 76 1014.4
20260509071511 16 257 3.2 6.4 0.00 0.46 0.03 73 1014.4
20260509070014 16 255 1.6 6.4 0.00 0.46 0.03 74 1014.4
20260509064508 15 319 0.0 1.6 0.00 0.46 0.03 73 1014.3
20260509063003 15 61 0.0 0.0 0.00 0.46 0.03 81 1014.4
20260509061515 14 61 0.0 0.0 0.00 0.46 0.03 84 1014.2
20260509060014 13 61 0.0 0.0 0.00 0.46 0.03 89 1014.3
20260509054518 11 61 0.0 0.0 0.00 0.46 0.03 93 1014.2
20260509053015 10 61 0.0 0.0 0.00 0.46 0.03 96 1014.1
20260509051508 9 61 0.0 0.0 0.00 0.46 0.03 94 1014.0
20260509050014 8 61 0.0 1.6 0.00 0.46 0.03 95 1013.8
20260509044517 8 61 1.6 3.2 0.00 0.46 0.03 92 1013.9
20260509043020 8 61 0.0 3.2 0.00 0.46 0.03 93 1013.8
20260509041528 9 61 0.0 3.2 0.00 0.46 0.03 94 1013.6
20260509040010 9 61 0.0 3.2 0.00 0.46 0.03 94 1013.7
20260509034513 9 61 1.6 3.2 0.00 0.46 0.03 94 1013.8
20260509033017 9 61 1.6 4.8 0.00 0.46 0.03 94 1013.6
20260509031528 10 61 0.0 8.0 0.00 0.46 0.03 94 1013.8
20260509030026 10 72 3.2 8.0 0.00 0.46 0.03 95 1013.9
20260509024510 10 78 0.0 0.0 0.00 0.46 0.03 94 1013.9
20260509023015 10 78 0.0 0.0 0.00 0.46 0.03 95 1013.9
20260509021521 10 78 0.0 0.0 0.00 0.46 0.03 94 1014.0
20260509020032 10 78 0.0 0.0 0.00 0.46 0.03 94 1013.9
20260509014538 10 229 0.0 0.0 0.00 0.46 0.03 94 1014.2
20260509013014 11 229 0.0 0.0 0.00 0.46 0.03 95 1014.3
20260509011518 11 229 0.0 3.2 0.03 0.46 0.03 95 1014.5
20260509010019 10 229 0.0 3.2 0.03 0.46 0.03 94 1014.5
20260509004527 11 229 0.0 0.0 0.03 0.46 0.03 94 1014.6
20260509003031 11 229 0.0 1.6 0.03 0.46 0.03 94 1014.6
20260509001504 11 229 0.0 1.6 0.00 0.43 0.00 94 1014.4
20260509000005 11 229 0.0 3.2 0.00 0.43 0.00 94 1014.3